Regional Weather Roundup
Issued by NWS Charleston, WV

Home | Current Version | Previous Version | Text Only | Print | Product List | Glossary Off
Versions: 1 2 3 4 5 6 7 8 9 10 11 12 13 14 15 16 17 18 19 20 21 22 23 24 25 26 27 28 29 30 31 32 33 34 35 36 37 38 39 40 41 42 43 44 45 46 47 48 49 50

000
ASUS41 KRLX 291910
RWRRLX
West Virginia Regional Weather Roundup
National Weather Service Charleston WV
300 PM EDT TUE JUL 29 2014

Note: "fair" indicates few or no clouds below 12,000 feet with no
significant weather and/or obstructions to visibility.

WVZ003-292000-
Northern Panhandle of West Virginia

CITY           SKY/WX    TMP DP  RH WIND       PRES   REMARKS
WHEELING       CLOUDY    64  48  56 N3        30.02S
$$

WVZ009-292000-
Northwest West Virginia

CITY           SKY/WX    TMP DP  RH WIND       PRES   REMARKS
PARKERSBURG    PTSUNNY  N/A N/A N/A NW6       30.06F
$$

WVZ006-292000-
Western West Virginia

CITY           SKY/WX    TMP DP  RH WIND       PRES   REMARKS
HUNTINGTON     CLOUDY    69  56  62 VRB5      30.04F
$$

WVZ015-292000-
West Central West Virginia

CITY           SKY/WX    TMP DP  RH WIND       PRES   REMARKS
CHARLESTON     PTSUNNY   69  57  65 VRB7G16   30.02F
$$

WVZ031-292000-
North Central West Virginia

CITY           SKY/WX    TMP DP  RH WIND       PRES   REMARKS
CLARKSBURG     PTSUNNY   69  50  50 W10       30.02S
MORGANTOWN     MOSUNNY   70  46  42 VRB5      30.02F
$$

WVZ035-042-045-292000-
South Central West Virginia

CITY           SKY/WX    TMP DP  RH WIND       PRES   REMARKS
BECKLEY        PTSUNNY   68  49  50 NW14      30.03F
BLUEFIELD      CLOUDY    67  51  56 NW9       30.05S
LEWISBURG      PTSUNNY   71  49  45 W5        30.02S
$$

WVZ047-292000-
Northern Mountains of West Virginia

CITY           SKY/WX    TMP DP  RH WIND       PRES   REMARKS
ELKINS         CLOUDY    64  49  57 NW10      30.04S
$$

WVZ052-292000-
Eastern Panhandle of West Virginia

CITY           SKY/WX    TMP DP  RH WIND       PRES   REMARKS
MARTINSBURG    PTSUNNY   73  46  38 NW12G21   29.97S
PETERSBURG     MOSUNNY   69  43  38 NW10      29.98S
$$



USA.gov is the U.S. government's official web portal to all federal, state and local government web resources and services.